Location: Aldenham
(51.6667°N, 0.3500°W)
Time: 11:32:00
(UTC+00:00)

Tiros 1 despin weight - Visible Passes

Search period start: 16 February 2026 00:00
Search period end: 26 February 2026 00:00
Orbit: 557 x 594 km, 48.2° (Epoch: 15 February)

Date Brightness Start Highest point End Pass type
(mag) Time Alt. Az. Time Alt. Az. Time Alt. Az.
16 Feb ? 18:43:54 10° W 18:48:00 53° S 18:50:22 23° ESE visible
16 Feb ? 20:24:25 10° W 20:26:32 23° WSW 20:26:32 23° WSW visible
17 Feb ? 18:46:22 10° W 18:50:26 49° S 18:52:53 22° ESE visible
17 Feb ? 20:27:04 10° W 20:29:04 20° WSW 20:29:04 20° WSW visible
18 Feb ? 18:48:51 10° W 18:52:50 43° SSW 18:55:27 19° SE visible
18 Feb ? 20:29:49 10° WSW 20:31:37 17° SW 20:31:37 17° SW visible
19 Feb ? 18:51:21 10° W 18:55:13 37° SSW 18:58:04 16° SE visible
19 Feb ? 20:32:51 10° WSW 20:34:14 13° SW 20:34:14 13° SW visible
20 Feb ? 18:53:52 10° W 18:57:34 30° SSW 19:00:45 13° SSE visible
21 Feb ? 18:56:29 10° W 18:59:51 24° SSW 19:03:13 10° SSE visible
22 Feb ? 18:59:13 10° WSW 19:02:06 18° SSW 19:04:59 10° S visible
23 Feb ? 19:02:17 10° WSW 19:04:18 13° SW 19:06:18 10° S visible
